Regional Weather Roundup
Issued by NWS Wakefield, VA

Home | Current Version | Previous Version | Text Only | Print | Product List | Glossary On
Versions: 1 2 3 4 5 6 7 8 9 10 11 12 13 14 15 16 17 18 19 20 21 22 23 24 25 26 27 28 29 30 31 32 33 34 35 36 37 38 39 40 41 42 43 44 45 46 47 48 49 50
000
ASUS41 KAKQ 240310
RWRAKQ

REGIONAL WEATHER ROUNDUP
NATIONAL WEATHER SERVICE WAKEFIELD VA
1100 PM EDT TUE SEP 23 2014

Note: "fair" indicates few or no clouds below 12,000 feet with no
significant weather and/or obstructions to visibility. * = Denotes
station may not report precipitation (e.g., rain,snow,etc.),
thunder or fog.

VAZ042-051-052>054-056-240400-
NORTHERN VIRGINIA

CITY           SKY/WX    TMP DP  RH WIND       PRES   REMARKS
WASH NATIONAL  MOCLDY    64  48  56 NE6       30.37F
DULLES         MOCLDY    52  47  83 CALM      30.38S
FORT BELVOIR   MOCLDY    53  51  93 CALM      30.38S
QUANTICO       MOCLDY    57  53  86 NW7       30.38S
FREDERICKSBRG* MOCLDY    55  50  85 CALM      30.36S
STAFFORD*      MOCLDY    51  51 100 CALM      30.41S
WARRENTON      MOCLDY    49  49 100 CALM      30.38R
CULPEPER*      PTCLDY    52  48  87 N3        30.39R
MANASSAS*      PTCLDY    54  52  94 CALM      30.38R
LEESBURG*      PTCLDY    52  52 100 NW3       30.39S
WINCHESTER     PTCLDY    52  45  76 CALM      30.38S
FRONT ROYAL*   MOCLDY    48  46  93 CALM      30.38R
LURAY*         MOCLDY    52  46  82 CALM      30.39R
$$

VAZ048-049-060>072-079>083-240400-
CENTRAL AND SOUTH CENTRAL VIRGINIA...AND NORTH CENTRAL NORTH CAROLINA

CITY           SKY/WX    TMP DP  RH WIND       PRES   REMARKS
RICHMOND       CLOUDY    56  48  74 N3        30.36R
CHESTERFIELD*  CLOUDY   N/A N/A N/A CALM      30.36F
PETERSBURG*    CLOUDY    57  49  75 CALM      30.35R
HANOVER        CLOUDY    51  49  92 CALM      30.38R
TAPPAHANNOCK*  CLOUDY    51  47  88 CALM      30.36S
CHARLOTTSVILLE MOCLDY    54  48  80 NW3       30.37S
ORANGE*        MOCLDY    52  48  87 CALM      30.39S
LOUISA*        CLOUDY    52  48  87 CALM      30.36R
FARMVILLE*     CLOUDY    55  54  94 N3        30.34S
CREWE*         CLOUDY    52  49  90 CALM      30.35S
FORT PICKETT*  CLOUDY    56  51  83 N6        30.34F
LUNENBURG*     CLOUDY    56  50  82 N6        30.32F
SOUTH HILL*    CLOUDY    57  54  88 N6        30.38S
LAWRENCEVILLE* CLOUDY    56  50  79 CALM      30.33S
ROANOKE RAPIDS CLOUDY    55  52  88 CALM      30.32S
RALEIGH        LGT RAIN  56  52  86 CALM      30.33R
$$

VAZ088>098-240400-
SOUTHEAST VIRGINIA

CITY           SKY/WX    TMP DP  RH WIND       PRES   REMARKS
NORFOLK        CLOUDY    64  55  72 N16       30.31S
VIRGINIA BEACH CLOUDY    66  57  72 NE14      30.30S
NORFOLK NAVAL  CLOUDY    65  55  70 NE18      30.33S
WEST POINT*    CLOUDY    58  50  76 CALM      30.37R
NEWPORT NEWS   CLOUDY    64  53  67 NE7       30.33S
LANGLEY AFB    CLOUDY    63  53  71 NE10      30.32S
FORT EUSTIS    CLOUDY    61  50  67 N3        30.32R
WILLIAMSBURG*  CLOUDY    61  54  77 CALM      30.35R
HR EXEC AP*    CLOUDY    61  52  72 NE7       30.34S
FRANKLIN*      CLOUDY    57  52  82 N6        30.32F
WAKEFIELD      CLOUDY    57  52  83 N3        30.34R
$$

VAZ020-022-025-037-045-240400-
WEST CENTRAL AND SOUTHWEST VIRGINIA

CITY           SKY/WX    TMP DP  RH WIND       PRES   REMARKS
STAUNTON*      MOCLDY    53  44  70 CALM      30.40S
HOT SPRINGS VA MOCLDY    48  25  40 E12       30.41S
LYNCHBURG      CLOUDY    54  52  93 CALM      30.37S
DANVILLE       CLOUDY    58  49  72 NE7       30.33F
SOUTH BOSTON*  NOT AVBL
MARTINSVILLE   CLOUDY    54  54 100 CALM      30.37S
ROANOKE        CLOUDY    54  51  90 NW3       30.38S
BLACKSBURG     CLOUDY    54  54 100 E6        30.38S
DUBLIN*        CLOUDY    55  54  98 CALM      30.37S
MARION*        CLOUDY    55  52  89 NE5       30.38R
HILLSVILLE*    CLOUDY    53  50  92 NE5       30.35F
RICHLANDS*     PTCLDY    59  53  80 E7        30.33S
WISE*          PTCLDY    55  50  82 NE5       30.34R
ABINGDON*      PTCLDY    59  53  78 E9        30.32R
$$

MDZ021>025-VAZ099-100-240400-
SOUTHERN MARYLAND AND THE DELMARVA PENINSULA

CITY           SKY/WX    TMP DP  RH WIND       PRES   REMARKS
PATUXENT RIVER CLOUDY    59  47  64 E8        30.36R
BAY BRIDGE APT   N/A     57  50  77 E3        30.37F
LEONARDTOWN    CLOUDY    55  48  76 CALM      30.38R
DOVER          PTCLDY    53  49  87 NW3       30.35S
GEORGETOWN     MOCLDY    53  49  86 N5        30.36S
EASTON         PTCLDY    55  50  83 CALM      30.40
CAMBRIDGE      MOCLDY    54  46  76 CALM      30.36S
SALISBURY      CLOUDY    56  49  77 CALM      30.36S
OCEAN CITY     CLOUDY    64  51  62 NE10      30.35S
WALLOPS ISLAND CLOUDY    58  51  78 N9        30.35S
ACCOMACK*      CLOUDY    55  48  76 N6        30.35R
$$

NCZ012>017-030>032-240400-
EASTERN NORTH CAROLINA

CITY           SKY/WX    TMP DP  RH WIND       PRES   REMARKS
ELIZABETH CITY CLOUDY    63  57  81 N12       30.28S
AHOSKIE*       CLOUDY    58  52  80 N6        30.32R
EDENTON*       CLOUDY    60  55  82 N9        30.27F
CURRITUCK*     CLOUDY    67  57  68 NE14      30.29S
KILL DEVIL HLS CLOUDY    69  60  73 NE14G20   30.24S
MANTEO         DRIZZLE   67  61  79 NE17G23   30.24F
CAPE HATTERAS  CLOUDY    68  66  93 NE15G24   30.18F
TARBORO*       LGT RAIN  58  53  84 N5        30.32R
GOLDSBORO      CLOUDY    59  58  96 NE3       30.26S
WASHINGTON     CLOUDY    58  54  85 N9        30.27S
GREENVILLE     CLOUDY    59  54  82 N8        30.29S
NEW BERN       CLOUDY    62  56  80 N9        30.26R
WILMINGTON     CLOUDY    60  57  89 N17G23    30.20F
$$

VAZ048-240400-
ELSEWHERE

CITY           SKY/WX    TMP DP  RH WIND       PRES   REMARKS
HARRISBURG PA  PTCLDY    55  50  83 CALM      30.38R
BALTIMORE      MOCLDY    54  49  83 CALM      30.38R
ANNAPOLIS      PTCLDY    63  53  70 E5        30.37S
ANDREWS AFB    MOCLDY    55  48  78 CALM      30.37R
WILMINGTON DE  CLEAR     57  51  80 CALM      30.39S
PHILADELPHIA   PTCLDY    59  51  75 SE5       30.39R
WILDWOOD NJ*   PTCLDY    54  46  76 CALM      30.38S
ATLANTIC CITY  PTCLDY    49  47  93 CALM      30.38S
HENDERSON NC   LGT RAIN  55  51  85 NE7       30.32S
GREENSBORO     MOCLDY    55  48  77 NE6       30.31R
ROCKY MOUNT    CLOUDY    57  54  89 NE7       30.30S
FAYETTEVILLE   CLOUDY    58  55  90 N12       30.26S
CHARLOTTE      MOCLDY    54  48  80 N7        30.31R
$$

VAZ100-240400-
MARINE

STATION/POSITION TIME  TEMP    WIND        PRES    WAVE   SWELL
                       AIR SEA DIR/SP/G            HT/PER HT/PER
                 (UTC) (F)     (DEG/KT/KT) (MB)    (FT/S) (FT/S)
44066 TX TWR #4  0300   63 70   40/ 10/ 12 1028.9R   2/ 8   2/ 8
CAPE MAY NJ      0300           40/  2/  3 1027.9R
LEWES DE         0300   65 69   60/ 13/ 15 1027.9S
15NM E FENWICK I 0300   65 71              1027.4R   3/ 6
OCEAN-CITY-INLET 0300   65 70   80/  8/ 13 1027.2F
WACHAPREAGUE VA  0300   59 69  350/  4/  9 1027.3R
THOMAS POINT MD  0300   63 71  120/  8/  8 1029.3F
GOOSES REEF MD   0300   63     120/ 12/ 16 1028.5R
COVE POINT MD    0300   61      90/ 10/ 13 1028.0R
SOLOMONS ISLAND  0300      73                N/A
BISHOPS HEAD MD  0300   61 66   40/  6/ 10 1027.4R
PINEY POINT MD   0300           70/  4/  5   N/A
POTOMAC MD       0300   65      70/ 12/ 14 1027.1R
CAMBRIDGE MD     0300           60/  5/  6 1027.8S
LEWISETTA VA     0300   64 70   80/ 11/ 15 1027.5R
RAPPAHANNOCK LGT 0300           30/ 16/ 19 1027.6R
STINGRAY PT      0300   65      60/ 12/ 16   N/A
YORK RVR RNG VA  0300   65      60/ 15/ 19 1026.8R
YORKTOWN VA      0300           50/ 11/ 12 1027.0R
JAMESTOWN VA     0300   58     360/  4/  6   N/A
DOMINION TERM VA 0300   64      50/  5/  9 1026.9S
KIPTOPEKE VA     0300      76   10/  7/ 10   N/A
CHES BAY BRIDGE  0300   64 73   10/ 17/ 19 1025.9F
CAPE HENRY VA    0300   64     360/ 19/ 21 1025.0F
CHESAPEAKE LGHT  0200   66      50/ 22/ 24 1026.0F
WILLOUBY STN VA  0300   65      40/ 16/ 18 1025.3S
S CRANEY ISL VA  0300          360/ 13/ 18 1026.2S
CAPE HENRY BUOY  0300      74                N/A     4/ 5
1ST LANDING BUOY 0300   65      10/ 17/ 19 1026.0F
CAPE CHARLES BUO 0300      73                N/A     4/ 4   2/ 8
OFFSHORE WE BUOY 0300      73                N/A     4/ 5   2/ 8
64NM E OF VA BCH 0300   69 75   50/ 19/ 23 1024.4R   5/ 6   2/ 9
DUCK PIER NC     0300           30/ 22/ 25 1023.8S
44100 DUCK FRF   0300      73                N/A     6/ 6
44056 DUCK FRF   0300                        N/A     5/ 6
OREGON INLET NC  0300   70 72   30/ 17/ 23 1023.3F
DIAMOND SHLS NC  0300   70      80/ 14/ 23 1021.9R   9/ 8   7/ 8
CAPE LOOKOUT NC  0200   66      20/ 21/ 26 1021.7F
$$


USA.gov is the U.S. government's official web portal to all federal, state and local government web resources and services.